When you browse on this site, cookies collect data to enhance your experience and personalize the content and advertising you see.
Visit our Privacy Policy to learn more. By continuing to use the site, you agree to this use of cookies and data.
  • en France
  • Liste des pays
  • À 7 jours
  • Température de l'eau
  • Carte météo
  • Widgets météo
  • user-avatar
    Se connecter

    Météo par heure à Kipungo

    Ce jour, 19 Février, Mercredi

    Heure Température Précipitation Vent Pression Humidité
    00:00 +20°C° 0 mm 2 m/s 653 mmHg 88%
    01:00 +20°C° 0 mm 2 m/s 652 mmHg 88%
    02:00 +20°C° 0 mm 1 m/s 652 mmHg 89%
    03:00 +20°C° 0 mm 1 m/s 652 mmHg 89%
    04:00 +19°C° 0 mm 1 m/s 652 mmHg 90%
    05:00 +20°C° 0 mm 1 m/s 652 mmHg 90%
    06:00 +20°C° 0 mm 1 m/s 653 mmHg 91%
    07:00 +21°C° 0 mm 1 m/s 653 mmHg 91%
    08:00 +23°C° 0 mm 1 m/s 654 mmHg 83%
    09:00 +25°C° 0 mm 2 m/s 654 mmHg 75%
    10:00 +26°C° 0 mm 2 m/s 655 mmHg 67%
    11:00 +27°C° 0 mm 2 m/s 655 mmHg 62%
    12:00 +29°C° 0 mm 2 m/s 655 mmHg 57%
    13:00 +30°C° 0 mm 1 m/s 654 mmHg 52%
    14:00 +29°C° 0 mm 1 m/s 654 mmHg 57%
    15:00 +28°C° 0 mm 1 m/s 653 mmHg 61%
    16:00 +27°C° 0 mm 1 m/s 652 mmHg 66%
    17:00 +26°C° 0.3 mm 1 m/s 652 mmHg 73%
    18:00 +24°C° 0.3 mm 1 m/s 652 mmHg 80%
    19:00 +23°C° 0.3 mm 2 m/s 652 mmHg 87%
    20:00 +21°C° 0 mm 2 m/s 652 mmHg 88%
    21:00 +21°C° 0 mm 2 m/s 653 mmHg 89%
    22:00 +20°C° 0 mm 2 m/s 653 mmHg 90%
    23:00 +20°C° 0.3 mm 2 m/s 653 mmHg 91%

    Demain, 20 Février, Jeudi

    Heure Température Précipitation Vent Pression Humidité
    00:00 +21°C° 0.3 mm 1 m/s 653 mmHg 93%
    01:00 +21°C° 0.3 mm 1 m/s 653 mmHg 94%
    02:00 +21°C° 1.1 mm 1 m/s 653 mmHg 94%
    03:00 +20°C° 1.1 mm 1 m/s 652 mmHg 93%
    04:00 +19°C° 1.1 mm 2 m/s 652 mmHg 93%
    05:00 +20°C° 0.4 mm 1 m/s 652 mmHg 93%
    06:00 +20°C° 0.4 mm 1 m/s 653 mmHg 92%
    07:00 +20°C° 0.4 mm 1 m/s 653 mmHg 92%
    08:00 +22°C° 0.2 mm 1 m/s 654 mmHg 86%
    09:00 +24°C° 0.2 mm 1 m/s 654 mmHg 80%
    10:00 +26°C° 0.2 mm 1 m/s 655 mmHg 73%
    11:00 +28°C° 0.2 mm 1 m/s 655 mmHg 66%
    12:00 +27°C° 0.2 mm 0 m/s 654 mmHg 58%
    13:00 +29°C° 0.2 mm 0 m/s 654 mmHg 51%
    14:00 +28°C° 0 mm 0 m/s 654 mmHg 52%
    15:00 +30°C° 0 mm 1 m/s 653 mmHg 54%
    16:00 +29°C° 0 mm 1 m/s 652 mmHg 55%
    17:00 +27°C° 0.3 mm 1 m/s 652 mmHg 65%
    18:00 +25°C° 0.3 mm 1 m/s 652 mmHg 75%
    19:00 +22°C° 0.3 mm 1 m/s 651 mmHg 84%
    20:00 +22°C° 0 mm 1 m/s 652 mmHg 86%
    21:00 +21°C° 0 mm 1 m/s 652 mmHg 88%
    22:00 +21°C° 0 mm 1 m/s 652 mmHg 89%
    23:00 +21°C° 0 mm 1 m/s 652 mmHg 90%

    Après-demain, 21 Février, Vendredi

    Heure Température Précipitation Vent Pression Humidité
    00:00 +20°C° 0 mm 1 m/s 652 mmHg 91%
    01:00 +20°C° 0 mm 1 m/s 652 mmHg 92%
    02:00 +19°C° 0 mm 1 m/s 652 mmHg 92%
    03:00 +19°C° 0 mm 1 m/s 651 mmHg 92%
    04:00 +17°C° 0 mm 0 m/s 651 mmHg 92%
    05:00 +17°C° 0 mm 0 m/s 652 mmHg 91%
    06:00 +18°C° 0 mm 0 m/s 652 mmHg 89%
    07:00 +18°C° 0 mm 0 m/s 653 mmHg 87%
    14:00 +30°C° 0 mm 1 m/s 653 mmHg 44%
    15:00 +30°C° 0 mm 2 m/s 653 mmHg 45%
    16:00 +30°C° 0 mm 2 m/s 652 mmHg 46%
    17:00 +28°C° 0 mm 1 m/s 652 mmHg 52%
    18:00 +26°C° 0 mm 1 m/s 652 mmHg 59%
    19:00 +23°C° 0 mm 1 m/s 652 mmHg 66%
    20:00 +23°C° 0 mm 1 m/s 652 mmHg 71%
    21:00 +22°C° 0 mm 1 m/s 652 mmHg 75%
    22:00 +21°C° 0 mm 1 m/s 652 mmHg 79%
    23:00 +21°C° 0 mm 1 m/s 652 mmHg 81%

    22 Février, Samedi

    Heure Température Précipitation Vent Pression Humidité
    00:00 +21°C° 0 mm 1 m/s 652 mmHg 82%
    01:00 +20°C° 0 mm 1 m/s 652 mmHg 83%
    02:00 +20°C° 0 mm 1 m/s 652 mmHg 83%
    03:00 +19°C° 0 mm 1 m/s 652 mmHg 83%
    04:00 +19°C° 0 mm 1 m/s 651 mmHg 83%
    05:00 +20°C° 0 mm 1 m/s 652 mmHg 81%
    06:00 +20°C° 0 mm 1 m/s 652 mmHg 80%
    07:00 +18°C° 0 mm 0 m/s 653 mmHg 78%
    08:00 +23°C° 0 mm 1 m/s 654 mmHg 67%
    09:00 +25°C° 0 mm 1 m/s 654 mmHg 57%
    10:00 +28°C° 0 mm 1 m/s 655 mmHg 47%
    11:00 +29°C° 0 mm 1 m/s 655 mmHg 44%
    12:00 +30°C° 0 mm 1 m/s 654 mmHg 42%
    13:00 +31°C° 0 mm 1 m/s 654 mmHg 39%
    14:00 +31°C° 0 mm 1 m/s 653 mmHg 41%
    15:00 +31°C° 0 mm 1 m/s 652 mmHg 42%
    16:00 +31°C° 0 mm 1 m/s 652 mmHg 43%
    17:00 +28°C° 0 mm 1 m/s 652 mmHg 49%
    18:00 +26°C° 0 mm 1 m/s 651 mmHg 54%
    19:00 +22°C° 0 mm 0 m/s 651 mmHg 60%
    20:00 +23°C° 0 mm 1 m/s 652 mmHg 64%
    21:00 +23°C° 0 mm 1 m/s 652 mmHg 68%
    22:00 +21°C° 0 mm 2 m/s 652 mmHg 72%
    23:00 +20°C° 0 mm 2 m/s 652 mmHg 76%

    23 Février, Dimanche

    Heure Température Précipitation Vent Pression Humidité
    00:00 +20°C° 0 mm 2 m/s 652 mmHg 80%
    01:00 +19°C° 0 mm 2 m/s 652 mmHg 84%
    02:00 +19°C° 0 mm 2 m/s 652 mmHg 84%
    03:00 +18°C° 0 mm 2 m/s 651 mmHg 84%
    04:00 +18°C° 0 mm 2 m/s 651 mmHg 84%
    05:00 +19°C° 0 mm 1 m/s 652 mmHg 82%
    06:00 +20°C° 0 mm 1 m/s 652 mmHg 81%
    07:00 +20°C° 0 mm 1 m/s 652 mmHg 79%
    08:00 +23°C° 0 mm 1 m/s 653 mmHg 69%
    09:00 +26°C° 0 mm 1 m/s 654 mmHg 58%
    10:00 +28°C° 0 mm 1 m/s 654 mmHg 47%
    11:00 +30°C° 0 mm 2 m/s 654 mmHg 44%
    12:00 +31°C° 0 mm 2 m/s 654 mmHg 41%
    13:00 +32°C° 0 mm 2 m/s 654 mmHg 38%
    14:00 +31°C° 0.1 mm 3 m/s 653 mmHg 42%
    15:00 +30°C° 0.1 mm 3 m/s 653 mmHg 46%
    16:00 +30°C° 0.1 mm 4 m/s 652 mmHg 51%
    17:00 +28°C° 0.1 mm 3 m/s 652 mmHg 61%
    18:00 +25°C° 0.1 mm 3 m/s 651 mmHg 71%
    19:00 +22°C° 0.1 mm 3 m/s 651 mmHg 81%
    20:00 +21°C° 0 mm 3 m/s 652 mmHg 82%
    21:00 +21°C° 0 mm 4 m/s 652 mmHg 82%
    22:00 +21°C° 0 mm 4 m/s 653 mmHg 82%
    23:00 +20°C° 0 mm 3 m/s 653 mmHg 85%

    24 Février, Lundi

    Heure Température Précipitation Vent Pression Humidité
    00:00 +19°C° 0 mm 3 m/s 652 mmHg 88%
    01:00 +19°C° 0 mm 2 m/s 652 mmHg 92%
    02:00 +19°C° 0 mm 2 m/s 652 mmHg 93%
    03:00 +18°C° 0 mm 2 m/s 652 mmHg 94%
    04:00 +18°C° 0 mm 2 m/s 651 mmHg 95%
    05:00 +18°C° 0 mm 2 m/s 652 mmHg 93%
    06:00 +19°C° 0 mm 2 m/s 652 mmHg 91%
    07:00 +19°C° 0 mm 2 m/s 653 mmHg 89%
    08:00 +21°C° 0 mm 2 m/s 653 mmHg 77%
    09:00 +25°C° 0 mm 2 m/s 654 mmHg 65%
    10:00 +27°C° 0 mm 2 m/s 655 mmHg 53%
    11:00 +28°C° 0 mm 2 m/s 654 mmHg 50%
    12:00 +30°C° 0 mm 2 m/s 654 mmHg 46%
    13:00 +31°C° 0 mm 2 m/s 654 mmHg 43%
    14:00 +30°C° 0 mm 3 m/s 653 mmHg 48%
    15:00 +29°C° 0 mm 3 m/s 652 mmHg 54%
    16:00 +28°C° 0 mm 3 m/s 652 mmHg 59%
    17:00 +26°C° 0.1 mm 3 m/s 652 mmHg 64%
    18:00 +24°C° 0.1 mm 3 m/s 652 mmHg 69%
    19:00 +23°C° 0.1 mm 2 m/s 652 mmHg 75%
    20:00 +21°C° 0 mm 2 m/s 652 mmHg 77%
    21:00 +20°C° 0 mm 2 m/s 653 mmHg 79%
    22:00 +19°C° 0 mm 2 m/s 653 mmHg 81%
    23:00 +19°C° 0 mm 2 m/s 653 mmHg 81%
    Voir plus